Temperature
0 1 1 -0 -1 -1 -1 -1 -0 0 0 1 0 -0 -0 -0 -0 -1 -1 -2 -2 -2 -2 -2 -2 -2 -3 -3 -3 -3 -3 -3 -3 -3 -3 -3 -3 -3 -2 -2 -2 -2 -2 -2
-0 0 -0 -1 -1 -1 -2 -2 -1 -1 -1 -0 0 0 -0 -1 -1 -1 -2 -2 -2 -3 -3 -3 -3 -3 -3 -3 -3 -3 -3 -3 -3 -3 -3 -3 -3 -3 -3 -3 -3 -3 -3 -3
-0 -0 -1 -2 -1 -2 -2 -2 -2 -2 -1 -1 -2 -2 -2 -1 -2 -2 -2 -3 -3 -3 -3 -3 -3 -3 -3 -4 -4 -4 -4 -4 -4 -4 -4 -4 -4 -4 -4 -4 -4 -4 -4 -4
-1 -1 -2 -0 -2 -2 -2 -3 -3 -2 -2 -2 -2 -2 -2 -2 -2 -3 -3 -3 -3 -3 -4 -4 -4 -4 -4 -4 -4 -4 -5 -5 -5 -5 -5 -5 -5 -5 -5 -5 -5 -5 -4 -4
-1 -2 -1 -1 -2 -3 -3 -3 -3 -3 -3 -3 -3 -3 -2 -2 -3 -3 -3 -3 -4 -4 -4 -4 -4 -4 -4 -4 -5 -5 -5 -5 -5 -5 -5 -5 -5 -5 -5 -5 -5 -5 -5 -5
-2 -2 -2 -1 -3 -3 -3 -3 -3 -3 -4 -4 -4 -4 -4 -3 -3 -4 -4 -4 -4 -4 -4 -4 -4 -5 -5 -5 -5 -5 -6 -6 -6 -6 -6 -6 -6 -6 -6 -6 -6 -6 -6 -6
-3 -3 -3 -3 -4 -3 -3 -3 -3 -3 -4 -4 -5 -4 -4 -4 -4 -4 -4 -4 -5 -5 -5 -5 -5 -5 -6 -6 -6 -6 -6 -6 -6 -6 -7 -7 -7 -7 -7 -7 -7 -7 -7 -6
-4 -3 -3 -4 -5 -4 -4 -3 -3 -4 -4 -4 -5 -5 -5 -5 -5 -5 -5 -5 -5 -5 -5 -6 -6 -6 -6 -6 -6 -7 -7 -7 -7 -7 -7 -7 -7 -7 -7 -7 -7 -7 -7 -7
-4 -3 -3 -4 -4 -4 -4 -4 -4 -5 -5 -5 -6 -6 -6 -6 -6 -5 -6 -6 -6 -6 -6 -6 -6 -7 -7 -7 -7 -7 -7 -7 -7 -7 -7 -8 -8 -8 -8 -8 -8 -8 -8 -8
-5 -5 -4 -4 -4 -4 -4 -5 -5 -5 -5 -6 -6 -6 -6 -6 -6 -6 -6 -6 -6 -7 -7 -7 -7 -7 -7 -7 -8 -8 -8 -8 -8 -8 -8 -8 -8 -8 -9 -9 -9 -9 -9 -9
-6 -6 -5 -4 -4 -4 -5 -5 -5 -5 -6 -6 -6 -6 -6 -7 -7 -7 -7 -7 -7 -7 -7 -7 -7 -7 -7 -8 -8 -8 -8 -8 -8 -9 -9 -9 -9 -9 -9 -9 -9 -9 -9 -9
-5 -5 -6 -5 -5 -5 -5 -6 -6 -6 -6 -6 -6 -7 -7 -7 -7 -7 -7 -7 -7 -8 -8 -8 -8 -8 -8 -8 -8 -9 -9 -9 -9 -9 -9 -9 -9 -9 -9 -9 -10 -10 -10 -10
-5 -5 -5 -5 -5 -6 -6 -6 -6 -6 -6 -7 -7 -7 -7 -7 -7 -7 -7 -7 -8 -8 -8 -8 -8 -8 -8 -9 -9 -9 -9 -9 -9 -10 -10 -10 -10 -10 -10 -10 -10 -10 -10 -10
-6 -6 -7 -6 -7 -7 -7 -7 -7 -7 -7 -7 -7 -7 -8 -8 -8 -8 -8 -8 -8 -8 -8 -9 -9 -9 -9 -9 -9 -10 -10 -10 -10 -10 -10 -10 -10 -11 -11 -11 -10 -10 -10 -10
-7 -7 -7 -7 -7 -7 -8 -8 -8 -8 -8 -8 -8 -8 -8 -8 -8 -8 -8 -9 -9 -9 -9 -9 -9 -9 -9 -10 -10 -10 -10 -10 -11 -11 -11 -11 -11 -11 -11 -11 -11 -11 -11 -11
-8 -8 -8 -8 -8 -8 -8 -8 -8 -8 -8 -8 -9 -9 -9 -9 -9 -9 -9 -9 -9 -9 -9 -10 -10 -10 -10 -10 -10 -11 -11 -11 -11 -11 -11 -11 -11 -12 -12 -12 -12 -12 -12 -12
-9 -9 -9 -9 -9 -9 -9 -9 -9 -9 -9 -9 -9 -9 -10 -10 -10 -10 -10 -10 -10 -10 -10 -10 -10 -10 -11 -11 -11 -11 -11 -11 -12 -12 -12 -12 -12 -12 -12 -12 -12 -12 -12 -12
-9 -9 -10 -10 -10 -10 -9 -9 -9 -9 -10 -10 -10 -10 -10 -10 -10 -10 -10 -10 -10 -10 -10 -11 -11 -11 -11 -11 -11 -11 -12 -12 -12 -12 -12 -12 -12 -12 -13 -13 -13 -13 -13 -13
-9 -10 -10 -10 -10 -10 -10 -10 -10 -10 -10 -10 -10 -10 -11 -11 -11 -11 -11 -11 -11 -11 -11 -11 -11 -11 -11 -12 -12 -12 -12 -12 -12 -12 -13 -13 -13 -13 -13 -13 -13 -13 -13 -13
-10 -10 -10 -10 -10 -10 -10 -10 -10 -11 -11 -11 -11 -11 -11 -11 -11 -11 -11 -11 -11 -12 -12 -12 -12 -12 -12 -12 -12 -12 -12 -13 -13 -13 -13 -13 -13 -13 -13 -13 -13 -14 -14 -14
-10 -11 -11 -11 -11 -11 -11 -11 -11 -11 -11 -11 -11 -12 -12 -12 -12 -12 -12 -12 -12 -12 -12 -12 -12 -12 -12 -13 -13 -13 -13 -13 -13 -13 -13 -13 -13 -13 -13 -14 -14 -14 -14 -14
-11 -11 -11 -11 -11 -11 -11 -11 -12 -12 -12 -12 -12 -12 -12 -12 -12 -12 -12 -12 -12 -13 -13 -13 -13 -13 -13 -13 -13 -13 -13 -13 -13 -13 -14 -14 -14 -14 -14 -14 -14 -14 -14 -14
-11 -12 -12 -12 -12 -12 -12 -12 -12 -12 -12 -12 -13 -13 -13 -13 -13 -13 -13 -13 -13 -13 -13 -13 -13 -13 -13 -13 -13 -13 -13 -14 -14 -14 -14 -14 -14 -14 -14 -14 -14 -14 -15 -15
-12 -12 -12 -12 -12 -12 -12 -12 -13 -13 -13 -13 -13 -13 -13 -13 -13 -13 -13 -13 -13 -13 -13 -13 -13 -14 -14 -14 -14 -14 -14 -14 -14 -14 -14 -14 -14 -14 -14 -15 -15 -15 -15 -15
-12 -12 -12 -13 -13 -13 -13 -13 -13 -13 -13 -13 -13 -14 -14 -14 -14 -14 -14 -14 -14 -14 -14 -14 -14 -14 -14 -14 -14 -14 -14 -14 -14 -14 -14 -14 -14 -14 -15 -15 -15 -15 -15 -15
-13 -13 -13 -13 -13 -13 -14 -14 -14 -14 -14 -14 -14 -14 -14 -14 -14 -14 -14 -14 -14 -14 -14 -14 -14 -14 -14 -14 -14 -15 -15 -15 -15 -15 -15 -15 -15 -15 -15 -15 -15 -15 -15 -15
-13 -13 -13 -14 -14 -14 -14 -14 -14 -14 -14 -14 -14 -14 -14 -14 -14 -14 -14 -14 -14 -14 -14 -14 -15 -15 -15 -15 -15 -15 -15 -15 -15 -15 -15 -15 -15 -15 -15 -15 -15 -15 -15 -15
Wind_Speed
7 5 3 4 4 5 8 8 7 7 8 9 6 4 4 4 3 2 2 2 2 2 3 2 2 2 3 3 2 2 1 1 2 2 1 1 2 2 2 2 3 3 3 4
6 5 4 6 6 8 9 8 9 9 11 9 6 4 4 3 2 3 3 3 3 3 3 2 2 2 2 2 2 2 1 2 2 2 2 2 2 2 2 2 3 2 3 3
5 3 4 7 7 8 6 5 6 9 9 7 5 5 5 3 3 3 4 4 4 4 4 3 2 2 2 2 2 2 2 2 2 2 2 2 2 2 2 3 3 3 3 4
3 2 6 5 0 3 5 5 5 5 5 5 5 5 4 3 3 4 5 4 4 3 3 2 1 1 1 2 2 2 2 2 2 2 2 2 3 3 3 3 3 3 4 4
2 4 7 3 2 1 4 4 3 6 7 6 6 5 4 3 3 3 4 3 3 3 2 1 1 1 1 2 2 2 2 3 3 2 3 3 3 3 3 3 3 3 4 4
3 4 5 3 2 2 1 4 3 3 5 5 4 3 4 5 5 4 4 3 3 2 1 1 1 1 1 2 2 2 3 3 3 3 3 3 3 3 3 3 3 4 5 4
5 5 5 2 1 2 2 5 5 3 3 3 3 5 5 6 5 4 3 3 2 1 1 1 1 1 1 2 2 3 3 3 3 3 3 3 3 3 3 3 4 4 4 4
3 4 6 1 3 2 4 4 4 4 4 4 5 6 5 5 5 5 4 3 2 1 1 1 1 0 1 2 3 3 3 3 3 3 3 3 3 3 3 3 4 4 4 5
5 5 2 3 3 2 1 3 4 4 5 5 6 6 6 5 5 4 4 4 2 1 2 2 1 1 2 3 3 3 3 3 3 4 4 3 3 3 3 3 3 4 3 4
4 5 4 3 2 3 3 4 5 5 5 5 6 7 6 5 5 4 4 3 2 1 2 2 2 2 2 3 3 3 3 3 3 4 4 4 3 3 3 3 3 4 4 4
5 5 5 4 2 3 4 5 5 5 4 5 5 6 6 5 5 4 4 3 2 2 2 3 2 2 3 3 2 3 3 3 3 3 4 4 4 3 4 3 4 5 4 4
6 4 4 5 3 4 5 6 5 5 6 5 5 6 5 5 4 4 4 3 2 2 2 3 2 2 3 3 2 2 3 3 3 3 3 3 4 5 6 6 8 9 8 8
5 5 5 6 5 4 4 5 6 5 5 6 5 4 4 4 4 4 4 3 3 3 2 2 2 3 3 3 2 2 3 4 3 3 4 4 4 4 5 7 8 9 9 10
3 4 5 5 5 5 5 5 6 5 5 4 4 4 3 4 4 4 4 4 3 2 2 2 2 3 3 2 3 3 3 4 4 3 4 4 4 4 4 5 6 6 7 10
5 4 5 5 5 5 5 4 5 6 5 5 4 4 4 4 4 4 4 4 3 3 3 2 3 4 3 3 3 4 3 3 3 3 4 4 4 4 4 5 5 5 5 7
6 5 4 5 6 6 5 5 5 6 5 5 5 5 4 4 4 4 3 3 2 3 4 3 4 4 3 3 4 3 3 5 5 4 3 4 4 4 4 4 5 5 5 6
4 5 5 6 7 7 6 5 5 5 5 5 5 5 4 3 3 4 4 4 3 4 4 3 4 4 4 3 3 3 3 4 5 4 3 4 4 4 4 4 4 5 5 7
3 5 5 6 6 7 7 6 5 5 5 5 4 4 4 4 4 4 4 4 4 4 4 3 4 4 3 3 3 3 3 3 3 3 3 3 4 3 4 4 5 6 5 7
4 5 5 6 5 5 5 6 5 4 4 3 3 3 4 4 4 4 4 4 4 4 5 5 7 4 4 4 4 2 3 3 3 4 3 5 5 4 4 4 5 5 5 5
5 5 5 5 5 4 5 5 4 4 4 3 3 3 4 4 4 4 3 4 3 3 5 6 5 4 4 4 5 2 3 3 4 4 3 3 4 4 4 4 5 5 5 5
5 5 5 6 6 5 4 4 4 4 4 3 3 3 4 5 4 4 3 4 4 5 5 7 4 4 4 4 5 3 3 3 3 3 4 4 4 4 4 4 5 5 5 5
5 5 5 5 5 5 4 3 3 3 4 4 4 4 4 4 5 4 3 3 4 7 5 4 4 5 6 5 3 3 3 4 4 3 4 4 4 4 4 5 5 5 5 5
4 4 5 5 5 5 4 4 3 3 3 4 4 4 4 4 4 4 4 4 4 7 5 4 6 8 8 4 3 3 3 4 4 4 4 4 4 4 4 5 5 5 5 5
4 4 4 4 4 4 4 4 4 3 3 3 3 4 4 4 3 3 3 6 8 8 5 6 9 9 7 3 3 3 3 4 4 4 4 4 4 4 4 5 5 5 5 6
3 3 3 4 4 4 4 4 4 3 3 3 4 4 3 2 3 4 4 4 7 7 5 7 9 9 6 3 4 4 4 4 4 4 3 4 4 4 4 4 5 5 5 5
3 3 3 3 3 3 3 3 3 4 4 4 4 4 4 3 3 4 4 4 5 7 5 4 5 6 4 4 4 4 4 5 6 5 4 4 5 5 5 5 6 5 5 5
3 3 3 3 3 3 3 3 3 4 4 4 4 4 4 4 4 4 4 4 4 5 4 4 4 4 4 4 4 4 4 4 4 4 4 4 4 4 5 6 5 6 6 6
Wind_Direction
261 269 255 252 249 216 213 227 238 259 263 277 290 296 302 310 311 318 315 315 316 317 315 325 338 341 341 339 341 340 338 308 290 300 310 301 294 288 288 283 281 280 280 282
267 248 252 273 263 244 239 241 248 269 278 284 295 312 313 304 304 307 307 306 313 315 314 312 311 316 325 328 334 349 340 309 314 327 328 318 305 302 301 304 303 300 287 281
270 265 297 276 248 226 226 220 219 246 264 294 315 320 312 304 304 302 306 311 308 301 298 294 289 288 295 318 340 348 337 329 328 326 325 317 310 313 307 310 313 305 292 281
277 315 253 243 282 200 214 237 237 261 286 307 308 310 315 316 317 318 313 303 295 294 299 301 305 322 354 356 348 344 340 331 326 322 313 311 306 301 301 307 305 300 294 286
248 254 263 268 286 219 218 262 260 263 284 307 322 322 313 330 331 306 304 302 292 287 291 316 339 1 12 353 350 343 334 332 328 320 307 306 303 305 308 310 307 300 294 287
244 253 254 266 307 329 126 275 304 288 292 315 343 312 297 345 341 332 332 327 320 319 335 340 340 23 16 338 332 320 321 322 321 318 306 300 300 305 305 303 296 296 294 291
240 249 261 278 307 61 135 273 328 332 306 305 276 268 297 326 333 335 331 325 323 325 330 316 332 32 328 314 300 308 318 318 316 312 306 298 297 299 304 303 304 297 292 291
222 237 260 156 107 178 247 316 333 328 317 302 290 300 313 321 325 333 333 330 330 337 326 329 329 290 299 298 306 318 316 312 312 311 308 308 305 302 300 301 301 297 295 296
208 225 255 167 189 228 322 306 311 315 318 313 304 302 309 316 321 326 324 326 339 349 332 331 328 307 284 298 311 313 314 312 313 314 313 310 305 301 301 296 291 292 291 293
261 268 281 265 269 303 307 294 303 310 313 310 298 300 305 310 315 318 321 327 338 345 326 317 326 334 301 302 311 312 309 313 316 317 315 314 305 295 295 293 290 289 289 290
259 282 308 291 293 311 318 313 308 308 303 294 291 294 295 301 306 308 316 321 324 313 300 301 317 323 313 306 306 309 307 309 313 311 308 307 303 293 287 275 277 284 281 281
257 270 264 275 292 315 310 306 305 304 305 302 292 292 298 301 305 308 312 315 313 306 302 302 310 309 309 304 295 295 304 307 307 308 306 305 306 309 303 295 295 292 290 289
262 289 280 279 294 305 302 308 313 304 296 299 300 296 301 305 313 316 316 312 303 295 291 294 299 299 298 298 297 293 293 297 299 302 303 303 302 304 309 312 307 304 301 299
295 305 291 295 301 313 312 310 311 310 308 303 303 309 310 310 316 320 316 313 315 311 302 294 294 295 297 303 303 297 291 289 296 292 295 297 297 297 298 303 310 311 311 309
325 311 279 289 303 314 316 314 313 314 321 325 326 324 322 317 313 314 319 329 335 329 318 310 302 299 309 312 305 297 293 289 290 291 290 291 295 297 297 299 301 307 313 318
320 318 308 305 307 310 314 313 308 308 316 319 321 321 317 309 308 317 326 334 327 314 308 306 300 300 311 306 303 300 292 294 301 298 296 296 296 298 300 302 305 308 310 313
323 322 322 319 317 314 310 301 298 302 309 312 311 315 321 324 325 327 327 327 319 304 301 301 308 315 309 301 300 299 295 295 301 305 300 298 299 298 300 302 303 304 304 308
299 297 300 298 302 307 311 310 307 308 307 306 313 320 320 317 313 311 314 321 325 323 321 325 321 322 316 309 305 303 301 301 303 302 302 301 303 302 303 302 301 302 305 310
332 324 320 317 312 307 308 312 314 316 315 317 318 313 307 306 307 309 315 322 323 325 329 325 322 331 322 313 317 308 308 308 310 306 301 300 306 304 301 299 299 301 305 309
333 331 329 325 325 320 314 316 321 323 322 319 321 322 323 322 323 322 325 320 312 307 313 320 326 324 316 308 318 310 302 300 299 301 303 300 299 299 298 299 302 304 305 305
330 330 330 329 327 326 325 325 327 327 330 335 334 327 323 323 326 325 325 324 323 323 325 329 336 324 317 320 318 319 308 303 302 300 302 301 300 301 303 306 307 306 306 306
326 328 328 329 331 332 335 338 338 336 339 341 337 331 330 331 332 330 325 311 319 330 339 333 327 323 328 331 329 325 320 317 313 309 306 305 303 304 306 306 306 305 306 305
323 326 329 331 329 325 332 341 342 339 336 335 333 332 329 324 325 326 325 331 330 331 338 328 327 331 335 344 336 324 318 313 310 308 304 302 300 299 300 301 302 303 303 303
323 328 327 327 330 335 336 337 339 337 331 327 329 326 323 324 326 326 312 320 330 333 335 330 335 338 344 354 334 325 317 310 306 302 301 302 299 296 297 298 299 299 298 298
317 316 323 333 336 331 329 333 338 340 340 339 338 337 333 324 316 320 321 322 328 337 339 336 339 343 350 343 335 328 323 313 306 308 306 307 304 302 299 296 295 296 297 295
315 314 316 317 315 320 327 330 331 334 338 336 335 338 338 334 327 324 326 330 333 337 339 335 336 339 342 338 333 328 325 322 322 323 318 314 307 304 304 305 301 299 297 294
323 326 329 333 339 342 337 332 328 328 329 325 325 329 332 334 335 336 335 335 335 334 333 333 334 334 334 332 331 330 327 324 322 321 319 314 310 305 303 299 299 298 297 297
Height
1482 1480 1481 1483 1484 1485 1486 1483 1481 1473 1471 1467 1466 1466 1465 1464 1463 1462 1462 1461 1460 1459 1458 1457 1455 1454 1453 1452 1452 1451 1451 1450 1450 1450 1450 1450 1449 1449 1449 1449 1448 1448 1448 1448
1482 1479 1479 1480 1480 1481 1481 1481 1478 1474 1471 1465 1464 1464 1463 1462 1461 1460 1460 1459 1458 1457 1455 1454 1453 1452 1451 1450 1449 1449 1448 1448 1447 1446 1446 1446 1446 1445 1445 1443 1443 1443 1442 1442
1480 1478 1479 1480 1475 1475 1476 1474 1475 1473 1468 1463 1463 1462 1461 1460 1459 1458 1457 1456 1455 1454 1453 1452 1451 1450 1448 1447 1447 1446 1446 1445 1444 1444 1443 1442 1442 1441 1440 1439 1439 1438 1438 1437
1482 1482 1485 1472 1468 1468 1469 1470 1469 1466 1464 1463 1462 1461 1459 1459 1457 1456 1455 1454 1452 1451 1450 1449 1448 1447 1446 1445 1444 1443 1443 1442 1441 1441 1440 1439 1438 1437 1436 1435 1434 1434 1433 1433
1482 1481 1474 1468 1468 1468 1469 1468 1465 1464 1462 1461 1460 1458 1457 1456 1455 1454 1453 1451 1450 1449 1448 1446 1445 1444 1444 1442 1442 1441 1440 1439 1438 1438 1437 1436 1435 1433 1432 1431 1430 1430 1429 1428
1481 1479 1476 1469 1468 1465 1468 1468 1462 1461 1461 1461 1460 1460 1456 1454 1453 1452 1450 1449 1447 1446 1445 1444 1443 1442 1441 1440 1439 1438 1438 1437 1436 1435 1434 1433 1432 1430 1429 1428 1427 1426 1425 1424
1482 1479 1473 1469 1467 1466 1472 1468 1462 1461 1460 1460 1459 1458 1455 1452 1451 1449 1447 1446 1445 1444 1443 1442 1441 1440 1439 1437 1437 1436 1435 1434 1433 1432 1431 1430 1429 1428 1426 1425 1424 1422 1421 1421
1480 1479 1475 1468 1468 1470 1468 1464 1462 1460 1459 1458 1456 1454 1452 1450 1448 1446 1445 1443 1442 1441 1440 1439 1438 1437 1436 1435 1434 1434 1433 1432 1431 1430 1429 1428 1426 1425 1424 1422 1420 1419 1417 1416
1475 1472 1467 1465 1464 1464 1463 1462 1461 1459 1457 1456 1454 1451 1450 1448 1446 1444 1443 1441 1440 1439 1437 1436 1436 1435 1434 1433 1432 1431 1430 1429 1428 1427 1426 1425 1424 1422 1421 1419 1417 1416 1414 1413
1469 1465 1463 1463 1462 1462 1461 1460 1458 1457 1455 1453 1451 1449 1447 1445 1443 1442 1440 1439 1437 1436 1435 1434 1433 1432 1432 1431 1430 1429 1427 1426 1425 1424 1423 1422 1420 1419 1418 1416 1414 1413 1411 1410
1468 1464 1462 1460 1460 1460 1458 1457 1455 1454 1452 1451 1449 1447 1445 1443 1441 1439 1437 1436 1435 1434 1432 1432 1431 1430 1429 1428 1427 1426 1425 1423 1422 1421 1420 1419 1417 1416 1415 1414 1413 1411 1409 1407
1464 1462 1461 1458 1457 1457 1455 1454 1452 1450 1448 1447 1446 1444 1442 1440 1438 1437 1435 1433 1432 1431 1430 1429 1428 1427 1427 1426 1425 1423 1422 1420 1419 1418 1417 1416 1414 1413 1412 1411 1409 1408 1406 1405
1461 1459 1458 1455 1455 1454 1452 1451 1449 1448 1446 1444 1442 1441 1439 1437 1435 1434 1432 1431 1430 1428 1427 1426 1425 1424 1424 1423 1422 1421 1419 1418 1417 1415 1414 1413 1411 1409 1407 1406 1406 1404 1402 1401
1458 1457 1454 1453 1452 1451 1449 1448 1446 1444 1443 1441 1440 1438 1436 1434 1433 1431 1430 1428 1427 1426 1425 1424 1422 1421 1421 1420 1419 1418 1416 1415 1414 1413 1411 1410 1408 1407 1405 1403 1401 1399 1398 1397
1455 1454 1453 1451 1449 1447 1446 1444 1443 1441 1439 1438 1436 1435 1433 1431 1430 1428 1427 1426 1425 1423 1422 1421 1420 1419 1418 1417 1416 1414 1413 1412 1411 1409 1408 1407 1405 1404 1402 1400 1398 1396 1394 1392
1453 1451 1450 1448 1446 1444 1443 1441 1440 1438 1437 1435 1433 1432 1430 1428 1427 1425 1424 1423 1422 1420 1419 1418 1417 1416 1415 1414 1413 1411 1410 1409 1408 1406 1405 1404 1402 1401 1399 1397 1395 1393 1391 1389
1451 1449 1447 1445 1444 1442 1440 1439 1437 1435 1434 1432 1430 1429 1427 1425 1424 1423 1422 1421 1420 1418 1417 1416 1415 1414 1412 1411 1410 1408 1407 1406 1405 1403 1402 1400 1399 1397 1396 1394 1392 1390 1388 1386
1450 1448 1447 1445 1442 1440 1438 1436 1434 1433 1431 1429 1428 1426 1425 1423 1421 1420 1419 1418 1417 1416 1415 1414 1413 1411 1410 1408 1407 1406 1404 1403 1402 1400 1399 1397 1396 1394 1392 1390 1388 1386 1384 1383
1448 1446 1444 1442 1440 1438 1435 1434 1432 1430 1429 1427 1425 1424 1423 1421 1420 1418 1417 1416 1415 1413 1413 1412 1410 1409 1407 1406 1405 1403 1402 1400 1399 1397 1396 1395 1393 1391 1389 1387 1385 1383 1381 1379
1445 1443 1441 1439 1437 1435 1433 1431 1430 1428 1426 1425 1423 1422 1421 1419 1418 1417 1416 1415 1414 1412 1411 1409 1408 1406 1405 1403 1402 1401 1399 1398 1396 1395 1393 1392 1390 1388 1386 1384 1382 1380 1378 1376
1443 1441 1439 1437 1435 1433 1431 1429 1428 1426 1425 1423 1422 1420 1419 1418 1417 1415 1414 1412 1412 1411 1409 1407 1406 1404 1403 1401 1400 1398 1397 1395 1393 1392 1390 1388 1387 1385 1383 1381 1379 1377 1375 1373
1442 1440 1437 1435 1433 1431 1430 1428 1426 1425 1423 1422 1421 1419 1417 1416 1415 1414 1413 1412 1410 1409 1407 1405 1404 1402 1401 1399 1397 1396 1394 1392 1391 1389 1387 1385 1383 1382 1380 1378 1376 1374 1372 1370
1440 1438 1436 1434 1432 1430 1428 1427 1425 1424 1422 1421 1419 1418 1416 1415 1414 1412 1411 1410 1408 1407 1405 1403 1402 1400 1399 1397 1395 1393 1391 1390 1388 1386 1384 1383 1381 1379 1377 1375 1373 1371 1369 1367
1438 1436 1434 1433 1431 1429 1427 1425 1424 1423 1421 1420 1418 1417 1415 1414 1412 1411 1410 1408 1406 1405 1403 1402 1400 1398 1397 1395 1393 1391 1389 1387 1385 1384 1382 1380 1378 1376 1374 1372 1370 1368 1366 1364
1437 1435 1433 1431 1429 1428 1426 1425 1423 1421 1420 1419 1417 1416 1414 1413 1411 1409 1408 1406 1405 1403 1401 1400 1398 1397 1395 1393 1391 1389 1387 1385 1383 1381 1379 1377 1376 1374 1372 1370 1368 1365 1363 1361
1435 1433 1431 1430 1428 1427 1425 1423 1422 1420 1419 1417 1416 1415 1413 1412 1410 1408 1407 1405 1403 1402 1400 1398 1396 1395 1393 1391 1389 1387 1385 1383 1381 1379 1377 1375 1373 1371 1369 1367 1365 1363 1361 1359
1433 1431 1430 1428 1427 1425 1424 1422 1421 1419 1418 1416 1415 1414 1412 1410 1409 1407 1405 1403 1402 1400 1398 1397 1395 1393 1391 1389 1387 1385 1383 1381 1379 1377 1375 1373 1371 1369 1367 1365 1363 1361 1359 1357